TEVEL2-8

Last updated on Sun Apr 12 2026 00:03:16 GMT+0000 (Coordinated Universal Time)

1 63239U 25052AF 26101.45549297 .00012727 00000+0 44489-3 0 9992 2 63239 97.4013 356.9109 0007345 36.1407 324.0328 15.29659002 59816
UTC large
Height (km)
Speed (km/s)
/
Latitude / Longitude
Inclination (degrees)
Orbital Period (minutes)
Azimuth
Elevation
Range (km)
Doppler Factor

Next 0 passes for location: London (51.5072 / 0.1276)

Sorry there are no passes over London.